Wind_Speed
9 9 8 7 7 6 6 6 8 9 11 13 13 13 13 11 10 9 7 7 6 6 7 7 7 7 6 5 4 4 4 4 3 3 2 2 2 1 1 1 1 0 1 1 2 2 3 3 3
9 9 8 7 7 7 8 10 9 10 13 14 14 13 13 11 10 9 8 7 7 7 8 8 8 8 8 7 6 6 5 5 4 4 3 3 3 3 3 2 2 2 2 1 1 1 1 2 2
10 9 8 7 8 9 8 10 11 13 16 16 16 14 13 10 9 9 8 8 8 8 8 9 10 10 10 9 8 7 7 6 6 5 5 4 4 4 4 4 4 3 3 2 2 2 1 1 2
10 9 8 7 9 10 11 11 13 16 18 18 18 16 15 13 11 10 9 9 9 9 9 10 11 11 11 10 9 9 8 8 7 6 6 6 5 5 5 5 6 5 5 4 3 3 3 2 2
10 9 8 8 10 10 11 12 14 17 19 20 20 17 15 13 11 10 9 9 9 10 11 11 12 12 12 12 11 10 10 9 9 8 8 7 7 6 6 6 7 7 6 6 5 5 4 4 3
11 9 9 9 9 9 10 13 16 18 20 19 18 16 15 12 11 9 10 10 10 10 11 12 13 13 13 13 12 11 11 10 10 9 9 9 8 8 8 7 8 8 8 8 7 7 6 6 5
10 10 11 11 11 10 11 14 17 20 21 21 19 18 14 11 10 9 10 10 11 11 11 12 13 14 14 14 14 13 12 11 10 10 10 9 9 9 9 9 9 9 9 10 9 9 8 8 7
12 11 11 11 11 11 13 16 18 20 21 21 19 17 15 12 11 10 10 9 10 12 13 13 14 14 15 15 15 14 13 12 12 11 11 11 10 10 10 10 10 11 11 11 11 11 10 9 8
11 10 11 11 10 11 14 17 19 20 20 19 18 17 15 14 12 10 10 9 10 12 13 13 14 14 15 16 16 15 14 13 12 12 12 12 12 11 11 11 11 12 12 12 12 12 12 11 10
10 10 11 11 12 13 15 17 19 19 19 18 17 16 15 14 11 9 9 10 11 12 12 13 13 14 15 16 17 17 15 15 13 13 14 14 13 13 12 12 12 12 13 13 13 13 13 13 12
10 10 11 12 13 13 15 17 19 19 19 18 16 15 14 13 11 11 11 11 12 11 12 13 14 14 14 16 16 16 16 15 15 15 15 15 14 13 13 12 12 13 13 13 14 14 14 14 13
11 10 11 12 13 13 14 16 17 17 17 15 15 13 12 11 11 11 12 11 12 12 12 12 13 14 15 16 15 15 16 17 16 15 14 14 14 13 12 12 13 12 13 12 13 14 14 14 15
10 10 11 12 13 14 14 16 16 15 14 13 13 14 12 12 12 10 11 12 12 12 12 11 12 12 13 13 14 14 15 15 16 15 14 14 14 12 12 12 12 12 11 11 11 12 13 14 15
11 11 12 12 12 13 13 14 14 13 13 12 12 12 11 11 10 9 9 10 11 11 11 12 11 11 12 12 13 13 13 14 14 14 13 13 12 11 11 11 10 10 10 11 11 12 12 14 14
11 11 11 11 11 11 11 12 12 12 12 12 11 11 11 10 9 8 7 8 8 9 11 12 12 11 11 12 13 12 12 12 13 13 12 11 11 10 10 10 10 10 10 11 11 12 12 12 14
10 9 9 9 10 9 10 11 11 12 12 12 11 10 10 9 8 7 7 6 5 6 9 9 10 10 10 11 12 11 10 10 10 11 11 10 10 9 9 10 10 9 10 10 10 11 11 12 13
9 9 8 8 9 9 10 10 11 11 11 11 11 9 8 8 7 7 7 6 6 6 8 7 7 8 8 9 10 9 9 9 10 10 10 10 10 9 9 9 9 9 10 10 10 10 11 11 12
8 9 9 9 8 9 10 11 10 9 9 10 9 8 7 6 6 6 5 5 5 5 6 6 8 8 8 8 10 9 9 9 8 8 9 9 8 8 8 8 9 9 9 9 9 10 10 11 12
9 10 10 9 9 10 9 10 10 9 8 9 8 8 6 5 5 4 4 3 3 4 5 6 7 7 8 8 9 9 9 8 7 7 7 7 7 7 7 7 8 8 8 8 8 9 10 11 11
11 11 10 9 9 10 10 10 10 10 9 9 8 7 6 5 4 3 3 2 3 4 5 5 6 7 7 7 7 7 8 8 7 6 6 6 6 6 6 6 6 6 7 7 8 9 10 10 10
12 12 10 10 11 12 12 12 12 11 10 9 7 6 6 4 3 2 2 3 3 4 5 5 5 6 6 7 7 7 7 7 7 6 5 5 5 5 5 5 5 5 6 6 7 7 8 9 9
13 11 11 11 13 13 14 14 11 10 10 8 6 5 4 3 1 2 4 4 4 4 5 5 6 6 6 6 7 6 6 7 6 5 5 4 4 4 4 4 4 4 4 4 5 6 6 7 7
13 11 12 13 15 15 15 15 12 9 8 7 5 4 3 1 1 3 4 4 4 4 4 5 6 7 7 6 7 7 7 7 6 5 4 3 2 2 2 2 2 2 2 3 4 4 5 6 6
14 14 15 15 16 16 15 13 11 10 8 6 5 4 2 2 3 4 5 4 4 4 5 6 6 7 7 7 7 7 7 7 6 5 4 3 2 2 1 1 1 1 2 2 3 4 4 5 6
15 16 16 17 16 15 15 14 11 10 8 6 3 3 4 4 4 5 5 5 4 5 5 6 6 6 7 7 7 7 7 6 6 5 4 4 3 2 2 1 1 1 2 2 3 3 4 5 6
15 17 17 18 16 15 15 14 11 9 7 6 4 4 5 6 6 6 6 5 5 5 5 6 6 6 7 7 7 7 7 6 6 5 4 4 3 2 2 1 2 2 2 3 3 4 5 5 6
18 19 18 18 16 15 15 12 9 7 7 7 5 5 5 7 7 7 6 5 5 5 5 5 6 6 6 6 7 7 7 7 6 5 4 4 3 2 1 1 1 2 2 3 4 5 5 6 7
21 21 20 20 18 16 15 12 10 9 7 7 6 7 7 8 8 7 6 6 5 5 5 5 5 5 5 6 7 7 7 6 6 5 4 3 2 1 0 1 2 3 4 4 4 5 6 6 7
20 21 20 19 19 18 16 14 12 10 8 6 4 7 9 9 9 8 7 6 5 5 5 5 5 5 6 6 7 7 6 6 5 4 3 3 2 1 1 1 2 3 4 5 5 6 6 7 8
20 20 20 20 19 18 17 14 12 11 9 7 5 7 8 8 8 8 7 6 6 6 5 5 5 5 6 6 7 6 5 5 5 4 3 2 2 2 2 2 3 4 5 5 6 7 7 8 9
Wind_Direction
326 322 317 315 310 304 299 302 308 318 324 324 321 313 308 302 300 293 279 277 256 243 235 234 234 227 221 217 220 233 244 249 253 259 265 258 257 267 271 252 230 182 153 129 112 112 124 128 130
322 315 307 309 296 289 288 299 306 312 318 326 319 306 302 298 292 275 264 263 248 239 237 232 233 230 228 224 226 231 239 246 247 250 254 254 251 253 265 260 256 249 238 233 221 172 148 144 145
314 308 304 301 288 280 283 294 300 308 313 323 319 308 300 293 287 275 260 251 239 234 234 229 228 228 230 228 229 233 237 243 245 246 248 249 251 254 257 257 256 259 256 254 254 254 245 189 165
310 304 298 293 285 282 291 302 305 311 314 318 318 312 302 293 285 276 263 247 240 235 234 229 228 226 228 230 233 237 239 240 242 244 245 247 250 256 259 256 255 261 262 260 258 260 265 261 243
304 301 292 283 281 288 298 306 309 312 314 316 317 314 309 298 294 274 261 254 244 240 236 233 228 227 227 231 235 239 239 239 240 244 246 247 249 253 257 257 256 259 263 263 262 261 263 263 261
299 293 278 278 282 289 298 305 307 311 311 314 318 312 304 297 292 273 257 251 249 248 239 235 230 228 229 231 235 238 240 242 244 247 247 247 250 253 254 258 260 261 262 264 265 264 262 261 257
285 280 277 285 287 292 300 302 304 307 309 312 312 311 307 298 293 279 265 253 249 247 242 242 237 232 231 232 235 238 240 243 247 248 248 250 249 250 253 257 261 264 264 265 266 266 263 260 257
278 277 278 285 292 294 298 302 304 305 309 313 313 309 303 298 297 282 264 258 251 245 243 243 235 234 234 234 235 239 239 241 246 249 249 249 249 249 252 257 261 263 266 266 265 267 265 262 259
279 275 278 285 291 295 299 303 304 305 309 312 309 306 300 296 290 275 261 263 258 250 244 241 238 236 237 236 236 239 238 239 244 247 249 250 250 250 252 257 261 264 266 266 265 266 264 259 257
271 271 278 286 288 294 299 302 302 303 308 310 308 305 299 297 284 268 261 263 260 253 246 242 241 239 239 238 238 239 240 241 241 244 246 249 250 250 252 257 261 264 265 264 264 263 261 259 258
265 267 277 285 289 291 294 299 300 302 304 308 305 303 301 299 284 263 255 258 262 255 249 247 240 237 239 236 237 239 240 239 240 244 248 250 249 251 253 257 261 263 264 264 263 261 259 259 258
262 266 276 283 289 291 295 300 303 305 307 311 312 307 300 293 285 269 259 255 258 258 249 243 239 239 238 236 235 238 239 239 240 245 249 251 251 251 253 259 262 264 266 265 262 259 259 259 256
262 271 276 278 286 292 296 300 305 307 310 312 310 306 300 295 289 272 252 245 252 259 254 241 243 238 232 232 234 239 241 241 240 241 248 250 249 249 252 260 263 265 265 264 263 260 261 260 258
268 270 275 280 286 292 296 300 305 315 318 314 312 308 300 299 294 279 257 251 256 259 248 235 234 230 230 231 231 234 238 237 238 239 245 247 244 245 251 255 259 265 268 266 262 261 262 259 256
271 277 282 288 291 290 295 301 310 319 323 321 315 308 303 303 294 279 262 258 261 254 249 244 233 230 224 223 225 230 232 233 234 235 236 237 238 242 244 251 255 262 266 265 264 264 264 259 257
266 272 283 289 291 296 301 303 311 320 324 324 319 311 304 301 294 284 272 260 253 246 245 241 224 223 220 219 221 219 225 229 230 232 233 234 237 238 244 251 255 259 264 265 263 263 263 263 261
268 271 280 288 293 298 302 305 309 311 321 325 322 315 308 299 291 285 272 260 252 249 241 238 220 207 208 213 213 212 216 222 229 232 233 238 242 243 246 249 253 259 263 264 261 260 260 262 262
269 275 280 290 298 299 298 301 304 304 317 325 322 318 315 300 287 281 270 261 252 239 227 219 209 204 200 206 209 209 211 215 219 226 229 232 239 245 250 250 254 261 263 264 261 261 262 263 262
260 270 280 289 302 303 297 300 306 306 317 325 321 314 312 304 288 270 258 256 238 217 204 203 205 203 198 199 204 202 201 205 209 216 217 222 234 242 249 251 256 261 263 264 268 267 268 266 264
255 264 277 288 292 292 293 294 301 304 311 309 313 309 307 306 294 277 249 231 201 184 179 175 184 188 193 187 185 189 194 200 202 206 216 225 231 238 246 250 253 259 262 265 268 270 271 270 268
250 261 270 278 279 278 285 292 294 293 300 297 301 297 313 316 295 244 193 182 176 178 174 174 180 179 178 180 186 188 192 198 202 209 213 216 219 225 237 247 255 263 264 267 271 272 272 271 269
244 258 264 269 273 273 277 286 289 294 293 293 293 281 304 325 323 160 153 153 161 161 167 174 173 169 169 172 177 182 182 182 182 189 195 201 210 224 238 247 257 262 265 268 272 273 272 274 274
234 247 256 262 267 270 271 275 277 292 291 285 277 278 294 310 183 158 158 148 145 142 148 160 163 165 166 165 169 171 170 171 172 173 174 175 185 202 209 232 247 257 269 275 277 277 279 280 279
237 244 249 257 262 264 267 269 276 283 283 280 268 266 225 162 163 163 158 152 142 135 140 148 155 161 164 163 161 160 162 163 164 162 161 156 150 153 172 198 221 273 296 296 296 298 296 292 289
237 243 250 251 258 261 265 265 270 272 271 273 251 227 191 176 167 160 159 158 148 139 138 147 154 161 166 164 160 158 157 156 157 157 151 143 131 124 123 107 63 11 345 331 320 315 310 306 301
240 243 251 256 261 263 265 265 263 252 259 247 221 199 184 172 164 161 159 158 149 143 141 145 151 154 161 167 168 163 158 157 155 153 146 143 135 123 108 73 28 4 348 335 328 322 316 314 312
240 241 246 254 258 263 264 256 248 255 255 243 218 188 179 172 167 167 167 164 160 154 148 144 149 151 155 155 163 167 161 156 153 151 146 141 139 130 107 48 3 346 332 327 325 323 322 320 318
241 240 239 243 253 260 259 256 250 244 243 229 224 206 181 173 174 172 175 179 174 168 160 150 151 154 159 162 166 164 157 153 152 150 146 143 141 139 139 323 325 328 328 325 322 322 324 323 321
236 237 240 245 250 259 261 257 248 242 225 214 206 189 181 179 177 176 181 185 184 180 171 160 160 166 168 167 165 164 161 162 163 165 166 171 177 201 278 314 319 321 322 319 318 318 318 320 318
233 236 238 242 248 254 260 253 247 238 218 201 198 185 180 177 180 182 181 186 189 191 186 176 172 175 177 178 180 179 178 176 179 187 196 206 221 245 280 307 316 318 317 314 313 314 313 315 315
Height
5902 5900 5899 5898 5898 5896 5894 5893 5892 5890 5890 5890 5890 5889 5888 5888 5888 5889 5886 5884 5884 5884 5885 5886 5887 5888 5889 5890 5891 5892 5892 5893 5893 5893 5894 5894 5894 5895 5895 5895 5895 5895 5896 5896 5896 5896 5895 5895 5895
5900 5899 5898 5897 5895 5894 5892 5891 5890 5889 5889 5888 5887 5887 5886 5886 5885 5884 5883 5882 5883 5883 5884 5884 5886 5887 5888 5889 5890 5891 5892 5892 5893 5893 5893 5894 5894 5894 5895 5895 5895 5896 5896 5896 5896 5896 5896 5896 5896
5899 5897 5897 5895 5893 5892 5890 5889 5888 5887 5886 5886 5885 5885 5885 5884 5883 5881 5881 5880 5881 5882 5882 5883 5884 5885 5887 5888 5889 5890 5891 5891 5892 5893 5893 5893 5894 5894 5895 5895 5895 5896 5896 5896 5896 5896 5896 5896 5896
5897 5896 5895 5894 5891 5890 5888 5886 5885 5884 5883 5882 5882 5881 5881 5882 5881 5880 5879 5878 5879 5880 5880 5881 5882 5884 5885 5886 5887 5889 5890 5890 5891 5892 5892 5893 5893 5894 5894 5895 5895 5895 5896 5896 5896 5896 5897 5897 5897
5895 5894 5893 5892 5890 5888 5886 5884 5883 5883 5882 5881 5880 5878 5877 5877 5878 5878 5877 5877 5877 5878 5878 5879 5880 5881 5883 5884 5886 5887 5888 5889 5890 5891 5891 5892 5892 5893 5893 5894 5894 5895 5895 5895 5895 5896 5896 5896 5897
5894 5893 5892 5890 5888 5886 5883 5882 5881 5881 5881 5879 5878 5877 5874 5874 5875 5875 5875 5875 5875 5876 5876 5877 5878 5879 5881 5882 5884 5885 5887 5888 5888 5889 5890 5891 5891 5892 5892 5893 5893 5894 5894 5894 5895 5895 5895 5896 5896
5893 5891 5889 5888 5886 5885 5883 5881 5880 5879 5878 5877 5876 5874 5872 5871 5872 5872 5872 5872 5872 5873 5874 5875 5876 5877 5879 5880 5882 5883 5885 5886 5887 5888 5889 5889 5890 5890 5891 5892 5892 5893 5893 5893 5894 5894 5894 5895 5895
5890 5890 5887 5886 5884 5883 5882 5880 5878 5876 5875 5874 5873 5871 5870 5869 5869 5869 5869 5868 5869 5870 5871 5872 5873 5875 5876 5878 5880 5881 5883 5884 5885 5886 5887 5887 5888 5889 5889 5890 5891 5891 5891 5892 5892 5892 5893 5894 5894
5888 5888 5885 5884 5883 5881 5879 5878 5876 5874 5873 5872 5870 5869 5867 5866 5866 5866 5865 5866 5866 5867 5868 5869 5871 5873 5874 5876 5877 5879 5880 5882 5883 5884 5884 5885 5886 5887 5888 5888 5889 5889 5889 5890 5890 5890 5891 5892 5892
5885 5885 5884 5882 5881 5879 5878 5876 5874 5872 5871 5869 5867 5866 5864 5863 5864 5863 5862 5863 5864 5864 5865 5867 5868 5870 5871 5873 5875 5876 5877 5879 5880 5881 5882 5883 5884 5885 5886 5886 5887 5887 5887 5887 5888 5888 5889 5889 5890
5883 5882 5881 5880 5878 5877 5875 5874 5872 5870 5868 5866 5864 5862 5861 5861 5861 5860 5860 5860 5861 5862 5862 5864 5865 5867 5868 5870 5872 5873 5874 5876 5877 5879 5880 5880 5881 5882 5883 5884 5884 5884 5884 5885 5885 5885 5886 5887 5887
5880 5880 5879 5877 5876 5874 5873 5871 5869 5868 5867 5865 5862 5860 5859 5858 5858 5858 5857 5857 5858 5859 5859 5860 5862 5864 5865 5867 5869 5870 5872 5873 5875 5876 5877 5878 5879 5880 5881 5881 5881 5881 5882 5882 5882 5883 5883 5884 5884
5877 5877 5876 5875 5874 5872 5870 5868 5866 5865 5864 5862 5860 5858 5857 5856 5855 5855 5855 5855 5856 5857 5857 5858 5859 5861 5862 5864 5866 5867 5869 5870 5872 5873 5874 5875 5876 5877 5878 5879 5879 5879 5879 5879 5880 5880 5881 5881 5881
5874 5873 5873 5872 5871 5869 5867 5866 5864 5862 5861 5859 5857 5856 5855 5854 5853 5852 5852 5853 5853 5854 5854 5856 5856 5858 5859 5861 5863 5864 5866 5867 5868 5870 5871 5872 5873 5874 5875 5876 5877 5877 5877 5877 5878 5878 5878 5878 5878
5870 5871 5870 5869 5868 5867 5865 5864 5861 5859 5857 5856 5855 5853 5852 5851 5851 5850 5850 5850 5850 5851 5852 5853 5853 5854 5857 5859 5861 5862 5863 5864 5866 5867 5869 5870 5871 5872 5873 5874 5875 5875 5875 5875 5875 5875 5876 5876 5876
5868 5868 5868 5867 5865 5864 5864 5862 5859 5857 5855 5853 5852 5851 5850 5849 5848 5847 5848 5848 5848 5848 5849 5849 5851 5852 5854 5855 5858 5860 5861 5862 5863 5865 5866 5868 5869 5870 5871 5872 5873 5872 5872 5872 5873 5873 5873 5873 5873
5865 5865 5864 5864 5862 5861 5860 5859 5857 5855 5853 5852 5850 5850 5849 5848 5846 5846 5846 5846 5846 5847 5848 5847 5849 5850 5852 5854 5855 5857 5858 5860 5861 5863 5864 5865 5866 5867 5869 5870 5870 5870 5870 5870 5870 5870 5871 5870 5870
5862 5861 5861 5860 5859 5857 5857 5856 5854 5853 5851 5850 5849 5848 5847 5846 5845 5845 5845 5844 5844 5845 5846 5846 5848 5848 5850 5852 5854 5855 5856 5858 5859 5861 5862 5863 5864 5865 5866 5867 5868 5868 5868 5868 5868 5868 5868 5868 5868
5858 5858 5858 5857 5856 5855 5854 5853 5852 5850 5849 5848 5847 5846 5845 5844 5844 5843 5843 5843 5843 5844 5844 5845 5846 5847 5848 5850 5852 5853 5855 5856 5858 5859 5860 5861 5862 5863 5864 5865 5865 5865 5865 5865 5865 5865 5865 5865 5865
5854 5855 5855 5855 5854 5852 5852 5850 5849 5848 5847 5847 5846 5845 5844 5843 5842 5842 5842 5842 5842 5842 5843 5844 5845 5847 5848 5849 5851 5852 5853 5855 5856 5858 5859 5860 5860 5861 5862 5863 5863 5863 5863 5863 5863 5863 5863 5862 5862
5851 5852 5853 5852 5851 5850 5849 5848 5847 5845 5845 5844 5843 5843 5843 5841 5840 5840 5841 5841 5841 5842 5842 5843 5845 5846 5847 5848 5849 5851 5852 5853 5855 5856 5857 5858 5859 5859 5860 5861 5861 5861 5861 5861 5861 5860 5860 5860 5860
5847 5849 5850 5849 5849 5848 5848 5846 5846 5844 5843 5842 5842 5841 5841 5840 5839 5839 5840 5841 5841 5842 5842 5843 5844 5845 5846 5847 5849 5850 5851 5853 5854 5855 5856 5857 5857 5858 5858 5859 5859 5859 5859 5859 5859 5858 5858 5858 5857
5844 5845 5846 5846 5845 5845 5844 5844 5844 5842 5841 5840 5840 5840 5839 5839 5839 5839 5840 5841 5841 5841 5841 5842 5843 5844 5845 5847 5848 5849 5851 5852 5853 5854 5855 5856 5856 5857 5857 5857 5858 5858 5857 5857 5857 5857 5856 5856 5855
5840 5841 5842 5842 5842 5842 5842 5841 5841 5840 5839 5839 5838 5838 5838 5838 5838 5839 5840 5841 5841 5841 5841 5842 5843 5844 5845 5846 5848 5849 5850 5851 5852 5853 5854 5855 5855 5855 5856 5856 5856 5856 5856 5856 5855 5855 5854 5854 5853
5836 5837 5838 5838 5838 5838 5839 5838 5839 5838 5837 5837 5836 5836 5837 5837 5838 5839 5840 5840 5841 5841 5842 5842 5843 5843 5845 5846 5847 5848 5849 5850 5852 5852 5853 5854 5854 5854 5855 5855 5855 5855 5855 5854 5854 5853 5853 5852 5851
5832 5834 5835 5835 5835 5835 5835 5834 5836 5835 5835 5835 5835 5835 5836 5837 5838 5839 5839 5840 5841 5841 5842 5842 5843 5843 5844 5845 5846 5848 5849 5850 5851 5852 5852 5853 5853 5854 5854 5854 5854 5854 5853 5853 5852 5852 5851 5850 5849
5828 5829 5830 5831 5831 5831 5831 5832 5833 5833 5833 5833 5833 5833 5834 5836 5837 5838 5839 5840 5841 5842 5842 5842 5843 5843 5844 5845 5846 5847 5848 5849 5850 5851 5852 5852 5853 5853 5853 5853 5853 5853 5852 5851 5851 5850 5849 5848 5847
5824 5824 5826 5826 5827 5827 5828 5829 5831 5831 5831 5831 5831 5832 5833 5834 5836 5837 5838 5840 5841 5841 5841 5842 5842 5843 5844 5845 5846 5847 5848 5849 5850 5850 5851 5852 5852 5852 5852 5852 5852 5851 5851 5850 5849 5848 5847 5846 5845
5820 5821 5821 5822 5824 5824 5824 5828 5828 5828 5829 5829 5829 5830 5831 5833 5834 5836 5837 5838 5839 5840 5841 5841 5842 5843 5843 5844 5845 5846 5847 5848 5849 5850 5850 5851 5851 5851 5851 5850 5850 5850 5849 5848 5847 5846 5845 5844 5843
5815 5816 5817 5819 5820 5821 5821 5826 5825 5825 5825 5826 5827 5828 5830 5831 5833 5834 5835 5837 5838 5839 5840 5840 5841 5842 5843 5844 5845 5846 5846 5847 5848 5849 5849 5849 5849 5849 5849 5849 5848 5848 5847 5846 5845 5844 5843 5842 5841